Time,TemperatureF,DewpointF,PressureIn,WindDirection,WindDirectionDegrees,WindSpeedMPH,WindSpeedGustMPH,Humidity,HourlyPrecipIn,Conditions,Clouds,dailyrainin,SoftwareType,DateUTC
2013-05-29 00:01:00,48.0,36.0,-100.00,North,356,8.0,12.0,64,0.00,,,-99.99,,2013-05-29 06:01:00,
2013-05-29 00:11:00,46.0,36.0,-100.00,NNE,28,9.0,12.0,67,0.00,,,-99.99,,2013-05-29 06:11:00,
2013-05-29 00:21:00,46.0,36.0,-100.00,NNE,24,7.0,11.0,68,0.00,,,-99.99,,2013-05-29 06:21:00,
2013-05-29 00:31:00,46.0,36.0,-100.00,NNW,347,9.0,13.0,67,0.00,,,-99.99,,2013-05-29 06:31:00,
2013-05-29 00:42:00,46.0,36.0,-100.00,NNW,337,9.0,12.0,68,0.00,,,-99.99,,2013-05-29 06:42:00,
2013-05-29 00:51:00,45.0,35.0,-100.00,North,350,9.0,13.0,69,0.00,,,-99.99,,2013-05-29 06:51:00,
2013-05-29 01:01:00,45.0,35.0,-100.00,NNW,329,10.0,13.0,68,0.00,,,-99.99,,2013-05-29 07:01:00,
2013-05-29 01:11:00,45.0,35.0,-100.00,NW,309,9.0,14.0,68,0.00,,,-99.99,,2013-05-29 07:11:00,
2013-05-29 01:21:00,45.0,35.0,-100.00,West,275,7.0,12.0,67,0.00,,,-99.99,,2013-05-29 07:21:00,
2013-05-29 01:34:00,43.0,35.0,-100.00,SW,232,8.0,11.0,72,0.00,,,-99.99,,2013-05-29 07:34:00,
2013-05-29 01:42:00,42.0,35.0,-100.00,SSW,212,6.0,9.0,74,0.00,,,-99.99,,2013-05-29 07:42:00,
2013-05-29 01:52:00,43.0,35.0,-100.00,SSW,205,4.0,9.0,74,0.00,,,-99.99,,2013-05-29 07:52:00,
2013-05-29 02:02:00,42.0,36.0,-100.00,SSW,195,5.0,7.0,78,0.00,,,-99.99,,2013-05-29 08:02:00,
2013-05-29 02:11:00,43.0,36.0,-100.00,WSW,240,7.0,9.0,76,0.00,,,-99.99,,2013-05-29 08:11:00,
2013-05-29 02:21:00,44.0,36.0,-100.00,WSW,243,4.0,10.0,74,0.00,,,-99.99,,2013-05-29 08:21:00,
2013-05-29 02:32:00,45.0,36.0,-100.00,SW,234,9.0,11.0,71,0.00,,,-99.99,,2013-05-29 08:32:00,
2013-05-29 02:41:00,46.0,36.0,-100.00,SW,223,8.0,11.0,68,0.00,,,-99.99,,2013-05-29 08:41:00,
2013-05-29 02:51:00,45.0,36.0,-100.00,SSW,206,7.0,10.0,70,0.00,,,-99.99,,2013-05-29 08:51:00,
2013-05-29 03:01:00,47.0,36.0,-100.00,WSW,241,8.0,11.0,65,0.00,,,-99.99,,2013-05-29 09:01:00,
2013-05-29 03:11:00,47.0,36.0,-100.00,SW,232,4.0,9.0,67,0.00,,,-99.99,,2013-05-29 09:11:00,
2013-05-29 03:21:00,46.0,36.0,-100.00,SW,223,4.0,6.0,70,0.00,,,-99.99,,2013-05-29 09:21:00,
2013-05-29 03:33:00,45.0,37.0,-100.00,SSW,200,3.0,5.0,72,0.00,,,-99.99,,2013-05-29 09:33:00,
2013-05-29 03:42:00,45.0,36.0,-100.00,SE,143,3.0,6.0,72,0.00,,,-99.99,,2013-05-29 09:42:00,
2013-05-29 03:52:00,44.0,36.0,-100.00,East,93,1.0,4.0,73,0.00,,,-99.99,,2013-05-29 09:52:00,
2013-05-29 04:03:00,44.0,36.0,-100.00,NE,38,1.0,4.0,75,0.00,,,-99.99,,2013-05-29 10:03:00,
2013-05-29 04:12:00,45.0,37.0,-100.00,WNW,294,1.0,3.0,75,0.00,,,-99.99,,2013-05-29 10:12:00,
2013-05-29 04:22:00,45.0,38.0,-100.00,SW,232,2.0,4.0,76,0.01,,,-99.99,,2013-05-29 10:22:00,
2013-05-29 04:32:00,45.0,38.0,-100.00,SSW,212,2.0,4.0,79,0.00,,,-99.99,,2013-05-29 10:32:00,
2013-05-29 04:42:00,44.0,38.0,-100.00,WNW,302,1.0,1.0,81,0.00,,,-99.99,,2013-05-29 10:42:00,
2013-05-29 04:52:00,43.0,38.0,-100.00,NE,42,1.0,3.0,83,0.00,,,-99.99,,2013-05-29 10:52:00,
2013-05-29 05:02:00,44.0,39.0,-100.00,ENE,69,2.0,4.0,83,0.01,,,-99.99,,2013-05-29 11:02:00,
2013-05-29 05:12:00,43.0,38.0,-100.00,East,96,1.0,4.0,82,0.03,,,-99.99,,2013-05-29 11:12:00,
2013-05-29 05:22:00,44.0,38.0,-100.00,East,97,1.0,2.0,82,0.00,,,-99.99,,2013-05-29 11:22:00,
2013-05-29 05:32:00,44.0,40.0,-100.00,SSW,208,4.0,5.0,87,0.13,,,-99.99,,2013-05-29 11:32:00,
2013-05-29 05:42:00,43.0,40.0,-100.00,SSW,213,2.0,5.0,88,0.01,,,-99.99,,2013-05-29 11:42:00,
2013-05-29 05:51:00,43.0,39.0,-100.00,SW,217,2.0,6.0,86,0.00,,,-99.99,,2013-05-29 11:51:00,
2013-05-29 06:01:00,44.0,40.0,-100.00,South,179,3.0,6.0,87,0.03,,,-99.99,,2013-05-29 12:01:00,
2013-05-29 06:11:00,44.0,39.0,-100.00,SSW,208,4.0,9.0,85,0.04,,,-99.99,,2013-05-29 12:11:00,
2013-05-29 06:21:00,43.0,38.0,-100.00,West,265,4.0,8.0,84,0.00,,,-99.99,,2013-05-29 12:21:00,
2013-05-29 06:32:00,42.0,37.0,-100.00,WSW,243,8.0,12.0,82,0.01,,,-99.99,,2013-05-29 12:32:00,
2013-05-29 06:42:00,42.0,38.0,-100.00,WSW,250,7.0,12.0,84,0.00,,,-99.99,,2013-05-29 12:42:00,
2013-05-29 06:51:00,42.0,38.0,-100.00,NW,309,1.0,3.0,86,0.00,,,-99.99,,2013-05-29 12:51:00,
2013-05-29 07:02:00,43.0,39.0,-100.00,SW,236,2.0,7.0,84,0.00,,,-99.99,,2013-05-29 13:02:00,
2013-05-29 07:11:00,44.0,37.0,-100.00,SSE,165,7.0,12.0,77,0.00,,,-99.99,,2013-05-29 13:11:00,
2013-05-29 07:21:00,43.0,40.0,-100.00,SSE,152,7.0,11.0,87,0.00,,,-99.99,,2013-05-29 13:21:00,
2013-05-29 07:32:00,43.0,40.0,-100.00,SE,133,9.0,11.0,89,0.00,,,-99.99,,2013-05-29 13:32:00,
2013-05-29 07:42:00,43.0,39.0,-100.00,SE,137,9.0,12.0,86,0.00,,,-99.99,,2013-05-29 13:42:00,
2013-05-29 07:52:00,42.0,40.0,-100.00,SE,140,12.0,16.0,90,0.00,,,-99.99,,2013-05-29 13:52:00,
2013-05-29 08:02:00,43.0,39.0,-100.00,SSE,157,12.0,15.0,87,0.00,,,-99.99,,2013-05-29 14:02:00,
2013-05-29 08:11:00,43.0,38.0,-100.00,SSE,162,12.0,16.0,83,0.00,,,-99.99,,2013-05-29 14:11:00,
2013-05-29 08:21:00,43.0,39.0,-100.00,SSE,164,12.0,16.0,86,0.00,,,-99.99,,2013-05-29 14:21:00,
2013-05-29 08:32:00,44.0,39.0,-100.00,South,172,11.0,15.0,83,0.00,,,-99.99,,2013-05-29 14:32:00,
2013-05-29 08:41:00,44.0,41.0,-100.00,South,172,8.0,11.0,86,0.00,,,-99.99,,2013-05-29 14:41:00,
2013-05-29 08:52:00,45.0,38.0,-100.00,SSW,193,8.0,14.0,74,0.00,,,-99.99,,2013-05-29 14:52:00,
2013-05-29 09:01:00,46.0,38.0,-100.00,South,191,11.0,14.0,74,0.00,,,-99.99,,2013-05-29 15:01:00,
2013-05-29 09:11:00,46.0,37.0,-100.00,SSW,200,11.0,15.0,71,0.00,,,-99.99,,2013-05-29 15:11:00,
2013-05-29 09:21:00,47.0,37.0,-100.00,SW,216,10.0,13.0,70,0.00,,,-99.99,,2013-05-29 15:21:00,
2013-05-29 09:33:00,48.0,36.0,-100.00,SW,229,6.0,9.0,64,0.00,,,-99.99,,2013-05-29 15:33:00,
2013-05-29 09:42:00,48.0,35.0,-100.00,WNW,294,4.0,9.0,61,0.00,,,-99.99,,2013-05-29 15:42:00,
2013-05-29 09:53:00,48.0,37.0,-100.00,NE,44,2.0,6.0,67,0.00,,,-99.99,,2013-05-29 15:53:00,
2013-05-29 10:03:00,46.0,39.0,-100.00,South,188,10.0,19.0,76,0.01,,,-99.99,,2013-05-29 16:03:00,
2013-05-29 10:12:00,46.0,39.0,-100.00,SSW,205,11.0,19.0,77,0.00,,,-99.99,,2013-05-29 16:12:00,
2013-05-29 10:22:00,45.0,38.0,-100.00,SSW,206,9.0,12.0,75,0.00,,,-99.99,,2013-05-29 16:22:00,
2013-05-29 10:32:00,46.0,38.0,-100.00,SSW,213,5.0,10.0,76,0.01,,,-99.99,,2013-05-29 16:32:00,
2013-05-29 10:42:00,45.0,38.0,-100.00,West,275,4.0,10.0,76,0.00,,,-99.99,,2013-05-29 16:42:00,
2013-05-29 10:52:00,44.0,37.0,-100.00,NNW,333,7.0,8.0,77,0.00,,,-99.99,,2013-05-29 16:52:00,
2013-05-29 11:02:00,44.0,36.0,-100.00,NNW,328,4.0,7.0,74,0.00,,,-99.99,,2013-05-29 17:02:00,
2013-05-29 11:12:00,44.0,37.0,-100.00,NW,325,2.0,4.0,76,0.01,,,-99.99,,2013-05-29 17:12:00,
2013-05-29 11:22:00,44.0,37.0,-100.00,NNW,328,4.0,6.0,77,0.00,,,-99.99,,2013-05-29 17:22:00,
2013-05-29 11:32:00,45.0,38.0,-100.00,NNW,333,3.0,4.0,77,0.00,,,-99.99,,2013-05-29 17:32:00,
2013-05-29 11:42:00,45.0,36.0,-100.00,NNW,330,3.0,4.0,69,0.00,,,-99.99,,2013-05-29 17:42:00,
2013-05-29 11:52:00,46.0,38.0,-100.00,NW,325,3.0,6.0,73,0.00,,,-99.99,,2013-05-29 17:52:00,
2013-05-29 12:01:00,46.0,36.0,-100.00,NNW,343,4.0,9.0,68,0.00,,,-99.99,,2013-05-29 18:01:00,
2013-05-29 12:13:00,47.0,39.0,-100.00,North,8,6.0,11.0,74,0.00,,,-99.99,,2013-05-29 18:13:00,
2013-05-29 12:22:00,48.0,38.0,-100.00,NNE,17,6.0,11.0,68,0.00,,,-99.99,,2013-05-29 18:22:00,
2013-05-29 12:32:00,47.0,36.0,-100.00,North,7,7.0,14.0,66,0.00,,,-99.99,,2013-05-29 18:32:00,
2013-05-29 12:42:00,47.0,40.0,-100.00,NNW,346,12.0,19.0,75,0.00,,,-99.99,,2013-05-29 18:42:00,
2013-05-29 12:51:00,50.0,39.0,-100.00,NNW,339,13.0,21.0,67,0.00,,,-99.99,,2013-05-29 18:51:00,
2013-05-29 13:02:00,50.0,36.0,-100.00,NW,306,16.0,22.0,59,0.00,,,-99.99,,2013-05-29 19:02:00,
2013-05-29 13:11:00,49.0,36.0,-100.00,NW,316,16.0,22.0,59,0.00,,,-99.99,,2013-05-29 19:11:00,
2013-05-29 13:21:00,49.0,33.0,-100.00,NW,308,19.0,24.0,54,0.00,,,-99.99,,2013-05-29 19:21:00,
2013-05-29 13:32:00,49.0,35.0,-100.00,NW,312,19.0,25.0,57,0.00,,,-99.99,,2013-05-29 19:32:00,
2013-05-29 13:44:00,49.0,34.0,-100.00,NW,311,17.0,22.0,57,0.00,,,-99.99,,2013-05-29 19:44:00,
2013-05-29 13:52:00,49.0,34.0,-100.00,NW,304,17.0,21.0,55,0.00,,,-99.99,,2013-05-29 19:52:00,
2013-05-29 14:02:00,49.0,34.0,-100.00,NW,304,17.0,24.0,55,0.00,,,-99.99,,2013-05-29 20:02:00,
2013-05-29 14:11:00,48.0,35.0,-100.00,WNW,298,16.0,22.0,60,0.03,,,-99.99,,2013-05-29 20:11:00,
2013-05-29 14:22:00,48.0,37.0,-100.00,WNW,301,12.0,20.0,64,0.00,,,-99.99,,2013-05-29 20:22:00,
2013-05-29 14:33:00,49.0,32.0,-100.00,NW,309,14.0,19.0,50,0.00,,,-99.99,,2013-05-29 20:33:00,
2013-05-29 14:42:00,50.0,34.0,-100.00,NW,311,12.0,18.0,55,0.00,,,-99.99,,2013-05-29 20:42:00,
2013-05-29 14:52:00,50.0,36.0,-100.00,NW,318,12.0,18.0,57,0.00,,,-99.99,,2013-05-29 20:52:00,
2013-05-29 15:02:00,51.0,32.0,-100.00,NW,312,14.0,19.0,47,0.00,,,-99.99,,2013-05-29 21:02:00,
2013-05-29 15:12:00,51.0,35.0,-100.00,NW,316,12.0,21.0,56,0.00,,,-99.99,,2013-05-29 21:12:00,
2013-05-29 15:22:00,49.0,34.0,-100.00,NW,304,21.0,29.0,57,0.00,,,-99.99,,2013-05-29 21:22:00,
2013-05-29 15:33:00,51.0,30.0,-100.00,West,280,21.0,29.0,45,0.00,,,-99.99,,2013-05-29 21:33:00,
2013-05-29 15:43:00,50.0,31.0,-100.00,WNW,288,16.0,24.0,47,0.00,,,-99.99,,2013-05-29 21:43:00,
2013-05-29 15:53:00,53.0,28.0,-100.00,NW,305,14.0,21.0,38,0.00,,,-99.99,,2013-05-29 21:53:00,
2013-05-29 16:03:00,53.0,29.0,-100.00,WNW,284,14.0,22.0,40,0.00,,,-99.99,,2013-05-29 22:03:00,
2013-05-29 16:12:00,51.0,29.0,-100.00,WNW,299,15.0,19.0,43,0.00,,,-99.99,,2013-05-29 22:12:00,
2013-05-29 16:23:00,51.0,33.0,-100.00,WNW,299,18.0,26.0,51,0.00,,,-99.99,,2013-05-29 22:23:00,
2013-05-29 16:33:00,50.0,32.0,-100.00,WSW,256,14.0,24.0,49,0.00,,,-99.99,,2013-05-29 22:33:00,
2013-05-29 16:42:00,50.0,33.0,-100.00,WNW,284,11.0,17.0,52,0.00,,,-99.99,,2013-05-29 22:42:00,
2013-05-29 16:53:00,49.0,32.0,-100.00,NW,316,11.0,14.0,51,0.00,,,-99.99,,2013-05-29 22:53:00,
2013-05-29 17:02:00,50.0,31.0,-100.00,WNW,299,7.0,13.0,48,0.00,,,-99.99,,2013-05-29 23:02:00,
2013-05-29 17:12:00,51.0,31.0,-100.00,WSW,247,6.0,10.0,45,0.00,,,-99.99,,2013-05-29 23:12:00,
2013-05-29 17:21:00,53.0,29.0,-100.00,NE,37,4.0,9.0,39,0.00,,,-99.99,,2013-05-29 23:21:00,
2013-05-29 17:33:00,54.0,31.0,-100.00,SSW,198,13.0,27.0,41,0.00,,,-99.99,,2013-05-29 23:33:00,
2013-05-29 17:42:00,53.0,32.0,-100.00,WSW,256,20.0,28.0,44,0.00,,,-99.99,,2013-05-29 23:42:00,
2013-05-29 17:52:00,53.0,31.0,-100.00,West,263,16.0,23.0,42,0.00,,,-99.99,,2013-05-29 23:52:00,
2013-05-29 18:01:00,54.0,28.0,-100.00,WSW,251,14.0,27.0,36,0.00,,,-99.99,,2013-05-30 00:01:00,
2013-05-29 18:11:00,54.0,28.0,-100.00,West,272,18.0,29.0,36,0.00,,,-99.99,,2013-05-30 00:11:00,
2013-05-29 18:21:00,53.0,31.0,-100.00,West,281,15.0,24.0,43,0.00,,,-99.99,,2013-05-30 00:21:00,
2013-05-29 18:31:00,53.0,31.0,-100.00,WNW,298,17.0,25.0,43,0.00,,,-99.99,,2013-05-30 00:31:00,
2013-05-29 18:42:00,52.0,31.0,-100.00,West,280,15.0,21.0,44,0.00,,,-99.99,,2013-05-30 00:42:00,
2013-05-29 18:52:00,50.0,31.0,-100.00,WNW,291,17.0,34.0,47,0.00,,,-99.99,,2013-05-30 00:52:00,
2013-05-29 19:01:00,45.0,35.0,-100.00,West,275,30.0,40.0,67,0.01,,,-99.99,,2013-05-30 01:01:00,
2013-05-29 19:11:00,43.0,36.0,-100.00,West,280,29.0,38.0,76,0.01,,,-99.99,,2013-05-30 01:11:00,
2013-05-29 19:21:00,41.0,36.0,-100.00,WNW,284,32.0,41.0,84,0.03,,,-99.99,,2013-05-30 01:21:00,
2013-05-29 19:32:00,41.0,35.0,-100.00,West,280,26.0,35.0,79,0.00,,,-99.99,,2013-05-30 01:32:00,
2013-05-29 19:41:00,43.0,35.0,-100.00,West,265,23.0,31.0,73,0.00,,,-99.99,,2013-05-30 01:41:00,
2013-05-29 19:52:00,43.0,35.0,-100.00,WSW,247,26.0,35.0,74,0.00,,,-99.99,,2013-05-30 01:52:00,
2013-05-29 20:01:00,45.0,35.0,-100.00,WSW,247,22.0,30.0,69,0.00,,,-99.99,,2013-05-30 02:01:00,
2013-05-29 20:11:00,45.0,34.0,-100.00,WSW,251,25.0,32.0,66,0.00,,,-99.99,,2013-05-30 02:11:00,
2013-05-29 20:21:00,45.0,35.0,-100.00,WSW,256,9.0,21.0,68,0.00,,,-99.99,,2013-05-30 02:21:00,
2013-05-29 20:32:00,45.0,35.0,-100.00,WNW,291,9.0,18.0,69,0.00,,,-99.99,,2013-05-30 02:32:00,
2013-05-29 20:42:00,45.0,35.0,-100.00,WNW,291,9.0,18.0,69,0.00,,,-99.99,,2013-05-30 02:42:00,
2013-05-29 20:52:00,45.0,35.0,-100.00,WNW,291,9.0,18.0,69,0.00,,,-99.99,,2013-05-30 02:52:00,
2013-05-29 21:01:00,41.0,36.0,-100.00,West,264,19.0,26.0,84,0.00,,,-99.99,,2013-05-30 03:01:00,
2013-05-29 21:11:00,42.0,36.0,-100.00,WSW,237,20.0,25.0,82,0.00,,,-99.99,,2013-05-30 03:11:00,
2013-05-29 21:21:00,42.0,37.0,-100.00,SW,229,17.0,25.0,83,0.00,,,-99.99,,2013-05-30 03:21:00,
2013-05-29 21:33:00,42.0,36.0,-100.00,SW,236,19.0,26.0,78,0.00,,,-99.99,,2013-05-30 03:33:00,
2013-05-29 21:43:00,42.0,36.0,-100.00,SW,233,19.0,23.0,79,0.00,,,-99.99,,2013-05-30 03:43:00,
2013-05-29 21:53:00,43.0,35.0,-100.00,WSW,254,14.0,17.0,74,0.00,,,-99.99,,2013-05-30 03:53:00,
2013-05-29 22:02:00,43.0,35.0,-100.00,West,267,19.0,29.0,72,0.00,,,-99.99,,2013-05-30 04:02:00,
2013-05-29 22:12:00,43.0,36.0,-100.00,WSW,256,28.0,36.0,76,0.00,,,-99.99,,2013-05-30 04:12:00,
2013-05-29 22:23:00,43.0,33.0,-100.00,WSW,253,24.0,30.0,66,0.00,,,-99.99,,2013-05-30 04:23:00,
2013-05-29 22:33:00,42.0,36.0,-100.00,WSW,254,15.0,27.0,79,0.00,,,-99.99,,2013-05-30 04:33:00,
2013-05-29 22:42:00,42.0,36.0,-100.00,WSW,246,17.0,30.0,80,0.01,,,-99.99,,2013-05-30 04:42:00,
2013-05-29 22:53:00,41.0,36.0,-100.00,WSW,257,25.0,34.0,82,0.03,,,-99.99,,2013-05-30 04:53:00,
2013-05-29 23:02:00,40.0,36.0,-100.00,West,278,27.0,41.0,86,0.03,,,-99.99,,2013-05-30 05:02:00,
2013-05-29 23:12:00,40.0,36.0,-100.00,WNW,282,24.0,33.0,84,0.03,,,-99.99,,2013-05-30 05:12:00,
2013-05-29 23:22:00,42.0,35.0,-100.00,West,271,20.0,27.0,78,0.00,,,-99.99,,2013-05-30 05:22:00,
2013-05-29 23:32:00,43.0,35.0,-100.00,WSW,251,22.0,30.0,73,0.00,,,-99.99,,2013-05-30 05:32:00,
2013-05-29 23:42:00,43.0,34.0,-100.00,WSW,243,18.0,27.0,71,0.00,,,-99.99,,2013-05-30 05:42:00,
2013-05-29 23:52:00,43.0,34.0,-100.00,WSW,239,13.0,17.0,69,0.00,,,-99.99,,2013-05-30 05:52:00,